| time (UTC) | temp F | wind direction | speed knots | gust knots | rain 1hr in | rain 24hr in | rain mn in | humidity % | barometer mb |
| 20260502161002 | 59 | 280 | 6.1 | 0.0 | 0.00 | 0.00 | 0.00 | 85 | 1014.0 |
| 20260502151001 | 57 | 260 | 8.7 | 0.0 | 0.00 | 0.00 | 0.00 | 80 | 1015.0 |
| 20260502121002 | 64 | 190 | 10.4 | 0.0 | 0.00 | 0.00 | 0.00 | 55 | 1016.0 |
| 20260502111001 | 62 | 190 | 10.4 | 0.0 | 0.00 | 0.00 | 0.00 | 65 | 1016.0 |
| 20260502101333 | 60 | 200 | 11.3 | 0.0 | 0.00 | 0.00 | 0.00 | 60 | 1017.0 |
| 20260502091002 | 62 | 200 | 10.4 | 0.0 | 0.00 | 0.00 | 0.00 | 55 | 1017.0 |
| 20260502071002 | 60 | 200 | 12.2 | 0.0 | 0.00 | 0.00 | 0.00 | 60 | 1017.0 |
| 20260502061001 | 59 | 200 | 11.3 | 0.0 | 0.00 | 0.00 | 0.00 | 70 | 1017.0 |
| 20260502051001 | 55 | 200 | 7.8 | 0.0 | 0.00 | 0.00 | 0.00 | 80 | 1017.0 |
| 20260502041001 | 53 | 190 | 7.0 | 0.0 | 0.00 | 0.00 | 0.00 | 80 | 1018.0 |
| 20260502031002 | 55 | 180 | 8.7 | 0.0 | 0.00 | 0.00 | 0.00 | 80 | 1018.0 |
| 20260502021002 | 55 | 180 | 7.8 | 0.0 | 0.00 | 0.00 | 0.00 | 80 | 1019.0 |
| 20260502011002 | 53 | 170 | 6.1 | 0.0 | 0.00 | 0.00 | 0.00 | 80 | 1020.0 |
| 20260501231001 | 53 | 150 | 7.0 | 0.0 | 0.00 | 0.00 | 0.00 | 85 | 1021.0 |
| 20260501221001 | 55 | 150 | 7.8 | 0.0 | 0.00 | 0.00 | 0.00 | 75 | 1021.0 |
| 20260501211001 | 55 | 190 | 5.2 | 0.0 | 0.00 | 0.00 | 0.00 | 80 | 1022.0 |
| 20260501201001 | 59 | 130 | 6.1 | 0.0 | 0.00 | 0.00 | 0.00 | 65 | 1022.0 |
| 20260501191001 | 60 | 130 | 5.2 | 0.0 | 0.00 | 0.00 | 0.00 | 60 | 1022.0 |
| 20260501181001 | 64 | 110 | 5.2 | 0.0 | 0.00 | 0.00 | 0.00 | 55 | 1023.0 |
| 20260501171001 | 66 | 160 | 4.3 | 0.0 | 0.00 | 0.00 | 0.00 | 40 | 1024.0 |